TimeMDT,TemperatureF,Dew PointF,Humidity,Sea Level PressureIn,VisibilityMPH,Wind Direction,Wind SpeedMPH,Gust SpeedMPH,PrecipitationIn,Events,Conditions,WindDirDegrees,DateUTC
12:51 AM,44.1,39.9,85,29.93,10.0,NNW,8.1,-,0.01,,Overcast,340,2013-09-27 06:51:00
1:51 AM,44.1,39.9,85,29.97,10.0,WSW,10.4,-,0.00,Rain,Light Rain,250,2013-09-27 07:51:00
2:51 AM,44.1,39.9,85,29.96,10.0,West,6.9,-,0.02,,Overcast,270,2013-09-27 08:51:00
3:51 AM,44.1,39.9,85,29.95,10.0,West,11.5,-,0.02,Rain,Light Rain,280,2013-09-27 09:51:00
4:00 AM,44.6,39.2,81,29.92,10.0,WNW,10.4,-,0.00,,Overcast,290,2013-09-27 10:00:00
4:51 AM,43.0,39.9,89,29.97,10.0,West,8.1,-,0.02,,Overcast,260,2013-09-27 10:51:00
5:51 AM,43.0,39.0,86,29.93,10.0,WNW,4.6,-,0.01,Rain,Light Rain,290,2013-09-27 11:51:00
6:13 AM,42.8,39.2,87,29.91,10.0,Calm,Calm,-,0.00,,Mostly Cloudy,0,2013-09-27 12:13:00
6:51 AM,43.0,39.0,86,29.94,10.0,WNW,4.6,-,0.00,,Overcast,300,2013-09-27 12:51:00
7:51 AM,43.0,37.9,82,29.93,10.0,NW,9.2,-,N/A,,Overcast,310,2013-09-27 13:51:00
8:51 AM,43.0,37.9,82,29.96,10.0,West,5.8,-,N/A,,Overcast,280,2013-09-27 14:51:00
9:51 AM,43.0,37.9,82,29.95,10.0,WNW,5.8,-,N/A,,Overcast,300,2013-09-27 15:51:00
10:51 AM,45.0,37.9,76,29.96,10.0,West,5.8,-,N/A,,Overcast,280,2013-09-27 16:51:00
11:51 AM,46.0,37.0,71,29.96,10.0,WNW,12.7,-,N/A,,Overcast,290,2013-09-27 17:51:00
12:51 PM,48.0,32.0,54,29.93,10.0,NNW,9.2,-,N/A,,Overcast,330,2013-09-27 18:51:00
1:51 PM,48.9,35.1,59,29.91,10.0,Variable,5.8,-,N/A,,Overcast,0,2013-09-27 19:51:00
2:51 PM,50.0,34.0,54,29.90,10.0,North,8.1,-,N/A,,Overcast,350,2013-09-27 20:51:00
3:51 PM,48.9,30.9,50,29.91,10.0,West,9.2,-,N/A,,Overcast,270,2013-09-27 21:51:00
4:51 PM,48.9,30.0,48,29.92,10.0,WNW,4.6,-,N/A,,Overcast,300,2013-09-27 22:51:00
5:51 PM,48.0,28.9,48,29.93,10.0,WNW,9.2,-,N/A,,Overcast,300,2013-09-27 23:51:00
6:51 PM,44.1,35.1,71,29.95,10.0,WNW,11.5,-,0.00,Rain,Light Rain,290,2013-09-28 00:51:00
7:51 PM,43.0,35.1,74,29.94,10.0,WSW,9.2,-,0.00,,Overcast,240,2013-09-28 01:51:00
8:51 PM,43.0,35.1,74,29.95,10.0,WSW,11.5,18.4,N/A,,Overcast,250,2013-09-28 02:51:00
9:51 PM,43.0,36.0,76,29.94,10.0,WSW,9.2,-,N/A,,Overcast,250,2013-09-28 03:51:00
10:51 PM,43.0,36.0,76,29.92,10.0,West,11.5,-,N/A,,Overcast,260,2013-09-28 04:51:00
11:51 PM,42.1,35.1,76,29.90,10.0,WSW,10.4,-,N/A,,Scattered Clouds,250,2013-09-28 05:51:00